Regional Weather Roundup
Issued by NWS Grand Forks, ND

Home | Current Version | Previous Version | Graphics & Text | Print | Product List | Glossary On
Versions: 1 2 3 4 5 6 7 8 9 10 11 12 13 14 15 16 17 18 19 20 21 22 23 24 25 26 27 28 29 30 31 32 33 34 35 36 37 38 39 40 41 42 43 44 45 46 47 48 49 50
000
ASUS43 KFGF 272331
RWRFGF
PRAIRIE TO PINES  WEATHER ROUNDUP
NATIONAL WEATHER SERVICE EASTERN NORTH DAKOTA/GRAND FORKS ND
600 PM CDT SAT MAY 27 2017

 **SATELLITE DATA USED TO AUGMENT SKY COVER AT AUTOMATED STATIONS**
 *****  WEATHER ACROSS EASTERN NORTH DAKOTA  *****

CITY           SKY/WX    TMP DP  RH WIND       PRES   REMARKS
GRAND FORKS    LGT RAIN  68  46  45 W8        29.72R
GRAND FRKS AFB FAIR      72  41  33 W6        29.72R
DEVILS LAKE    CLOUDY    61  43  51 NW39G49   29.74R HAZE
FARGO          FAIR      77  40  26 W15       29.72F
WAHPETON ARPT  FAIR      72  34  25 SW16      29.76F
$$

 ***** WEATHER ACROSS CENTRAL AND WESTERN NORTH DAKOTA  *****

CITY           SKY/WX    TMP DP  RH WIND       PRES   REMARKS
BISMARCK       PTSUNNY   75  36  24 NW20G26   29.79S
MINOT          FAIR      62  49  62 W13       29.80F
JAMESTOWN      FAIR      74  36  25 W18G24    29.74F
MINOT AFB      FAIR      60  50  69 NW15      29.80S
GARRISON         N/A     55  47  74 VRB3G17   29.83F
WILLISTON      FAIR      73  42  32 VRB7      29.83F
DICKINSON      PTSUNNY   66  39  37 NW15G26   29.87R
HETTINGER      FAIR      68  40  35 W17G30    29.90F
$$

 *****  OTHER AIRPORT OBSERVATIONS IN OUR AREA  *****

CITY           SKY/WX    TMP DP  RH WIND       PRES   REMARKS
WALHALLA       NOT AVBL
GRAFTON AIRPOR MOCLDY    68  43  40 SW13      29.71F
VALLEY CITY AR FAIR      72  41  33 W13       29.76F
CANDO          NOT AVBL
CAVALIER APRT  FAIR      64  43  45 NW10G18   29.69S
GWINNER        PTCLDY    72  39  30 MISG      29.78R
SHEYENNE NWR     N/A     78  38  23 W14       29.95S
ROLLA          DRIZZLE   52  45  76 CALM      29.79F
 ***** THE ABOVE OBSERVATIONS ARE NON NWS ARE NOT QUALITY
       CONTROLLED AND MAY MIS-REPORT RAIN FOR SNOW...
$$

  *****  WEATHER ACROSS NORTHERN MINNESOTA  *****

CITY           SKY/WX    TMP DP  RH WIND       PRES   REMARKS
FLAG ISLAND    FAIR      64  45  48 NE5       29.69S
WARROAD        FAIR      72  43  35 W7        29.70S
ROSEAU         FAIR      70  41  35 SW8       29.70S
HALLOCK        FAIR      66  46  48 SE6       29.69F
THF RVR FALLS  FAIR      70  42  36 SW14      29.72F
BAUDETTE       PTSUNNY   70  39  32 SW10      29.71F
WASKISH        FAIR      64  48  55 NW14G21   29.74S
CROOKSTON      FAIR      70  41  35 SW15      29.71F
STEPHEN NDAWN    N/A     70  39  32 N3          N/A
GREENBUSH NDAW   N/A     61  48  63 W14         N/A
$$
  *****  WEATHER ACROSS CENTRAL AND WEST MINNESOTA  *****

CITY           SKY/WX    TMP DP  RH WIND       PRES   REMARKS
FOSSTON        FAIR      70  37  30 W7        29.74F
BEMIDJI        FAIR      71  38  30 SW10      29.74F
PARK RAPIDS    PTSUNNY   71  34  25 W22G28    29.77S
ELBOW LAKE     FAIR      68  49  50 S8        29.81F
WADENA         FAIR      70  41  35 SW10G16   29.78S
DETROIT LAKES  FAIR      72  39  30 W7        29.77F
MOORHEAD       FAIR      75  34  22 SW13      29.74S
FERGUS FALLS   FAIR      70  50  49 SW6       29.76F
MORRIS MN      FAIR      72  43  35 SW9       29.81S
STAPLES        FAIR      72  39  30 SW9G17    29.79F
$$
  *****  WEATHER ELSEWHERE ACROSS MINNESOTA  *****

CITY           SKY/WX    TMP DP  RH WIND       PRES   REMARKS
DULUTH         FAIR      74  40  29 NW16      29.78F
INTRNTL FALLS  FAIR      73  40  30 W7        29.73F
ELY            FAIR      72  36  26 W14       29.75F
CLOQUET        FAIR      72  37  28 SW12G17   29.79F
WHEATON        FAIR      73  36  25 SW17      29.81F
BRAINERD       FAIR      70  41  34 SW16      29.80F
HIBBING        FAIR      72  39  30 W10       29.76F
ALEXANDRIA     FAIR      72  40  31 SW12      29.83F
SAINT CLOUD    CLOUDY    69  45  41 W10       29.83F
MINNEAPOLIS    PTSUNNY   70  49  47 SW9       29.86S
$$

  *****  WEATHER ACROSS SOUTH DAKOTA  *****

CITY           SKY/WX    TMP DP  RH WIND       PRES   REMARKS
SIOUX FALLS    PTSUNNY   67  50  54 SW3       29.90F
BROOKINGS      FAIR      67  47  48 W10       29.89F
WATERTOWN      FAIR      68  41  37 SW14      29.86F
HURON          FAIR      70  45  40 S10       29.86F
SISSETON         N/A     71  42  35 W25G36    29.80F
ABERDEEN       FAIR      75  32  20 W16G23    29.80F
MITCHELL       FAIR      70  48  45 W10       29.91S
PIERRE         PTSUNNY   73  37  27 NW23G29   29.87S
MOBRIDGE       PTSUNNY   73  38  27 W10       29.81F
RAPID CITY     FAIR      71  34  25 NW20      29.99S
$$

  *****  SOME WEATHER IN NEARBY STATES *****

CITY           SKY/WX    TMP DP  RH WIND       PRES   REMARKS
GLASGOW MT     FAIR      78  33  19 NW24G33   29.92S
GREAT FALLS MT PTSUNNY   74  35  24 VRB6      30.09S
CHEYENNE WY    FAIR      57  31  37 N16G23    30.18R
SCOTTSBLUFF NE FAIR      65  41  41 W9        30.10R
OMAHA NE       FAIR      71  55  56 NE8       29.89S
DES MOINES IA  PTSUNNY   68  58  70 NE13      29.87R
DAVENPORT IA   PTSUNNY   72  61  68 E6        29.84S
CHICAGO IL     FAIR      73  56  54 E10       29.85F
EAU CLAIRE WI  FAIR      68  46  45 W8        29.85S
LA CROSSE WI   FAIR      69  50  50 NW8       29.86R
$$

  *****  SOME NATIONAL WEATHER *****

CITY           SKY/WX    TMP DP  RH WIND       PRES   REMARKS
LA GUARDIA NY  CLOUDY    69  56  62 SE6       29.87R
RALEIGH NC     PTSUNNY   84  66  54 SW12      29.86S
ATLANTA GA     FAIR      80  67  64 SW12      29.98F
NEW ORLEANS LA FAIR      85  75  72 S9        29.98F HX  93
OKLAHOMA CITY  PTSUNNY   93  72  50 S10       29.73S HX 101
ALBUQUERQUE NM FAIR      82   8   6 W15G23    30.01F
SALT LAKE CITY FAIR      70  37  29 NW13      30.20F
LOS ANGELES CA FAIR      67  53  61 W16       30.05S
BOISE ID       FAIR      76  33  21 SW8       30.15F
SEATTLE WA     FAIR      84  46  26 N10       30.06F
$$

*** WEATHER ACROSS MANITOBA...SASKATCHEWAN AND ONTARIO ***
                ***ONTARIO***

CITY           SKY/WX    TMP DP  RH WIND       PRES   REMARKS
GERALDTON      MOSUNNY   72  52  49 SW13G21   29.73S
THUNDER BAY    PTSUNNY   75  41  29 W10       29.73F
SIOUX LOOKOUT  PTSUNNY   68  41  37 NW15G23   29.70S
TORONTO        PTSUNNY   63  54  72 SE7       29.91S
BIG TROUT LK     N/A     66  50  55 SW5       29.63S
PICKLE LAKE    PTSUNNY   68  43  40 SW6       29.67F
DRYDEN         CLOUDY    61  45  55 S9G17     29.72R
KENORA         PTSUNNY   64  43  45 VRB3      29.71F
$$
                *** MANITOBA***

CITY           SKY/WX    TMP DP  RH WIND       PRES   REMARKS
BRANDON        PTSUNNY   59  43  55 NW15G22   29.75F
DAUPHIN        PTSUNNY   63  48  59 N12G17    29.70S
ISLAND LAKE    PTSUNNY   57  50  77 SE7       29.63S
PILOT MOUND      N/A     54  45  71 NW26G38     N/A
THE PAS        CLOUDY    48  45  87 NW12G20   29.74R
THOMPSON       CLOUDY    54  46  76 N10       29.66S
WINNIPEG       PTSUNNY   68  41  37 W16G23    29.67S
LYNN LAKE      CLOUDY    45  41  87 N8        29.78R
CHURCHILL      CLOUDY    37  36  93 NE8       29.76R
GILLAM         HVY RAIN  54  52  94 N10       29.65R
$$
                ***SASKATCHEWAN***

CITY           SKY/WX    TMP DP  RH WIND       PRES   REMARKS
ESTEVAN        MOSUNNY   66  46  48 W15       29.79F
KINDERSLEY     MOSUNNY   75  39  27 N18G28    29.91R
LLOYDMINSTER   MOSUNNY   72  39  30 N15       29.93S
PRINCE ALBERT  MOSUNNY   70  41  35 N16G28    29.83R
REGINA         MOSUNNY   70  37  30 NW20G32   29.82R
YORKTON          N/A     63  43  48 N16G24    29.77R
N. BATTLEFORD  SUNNY     72  37  28 N23G29    29.91R
LA RONGE       CLOUDY    59  46  63 N12       29.86R
SASKATOON      MOSUNNY   72  32  23 N20G31    29.87R
SWIFT CURRENT  MOSUNNY   75  36  23 NW28G33   29.89S
$$
NOTE: THESE ARE AUTOMATED STATIONS WITH LIMITED QUALITY CONTROL
      "FAIR" INDICATES FEW OR NO CLOUDS BELOW 12,000 FEET WITH NO
      SIGNIFICANT WEATHER AND/OR OBSTRUCTIONS TO VISIBILITY.
      SKY/WX - SKY CONDITION AND SIGNIFICANT WEATHER.
      TMP - AIR TEMPERATURE.    DP   - DEWPOINT TEMPERATURE.
      RH  - RELATIVE HUMIDITY.  PRES - PRESSURE.
      HX  - HEAT INDEX.         WCI  - WIND CHILL INDEX.
$




USA.gov is the U.S. government's official web portal to all federal, state and local government web resources and services.